Weather in Borovlyanka

Russia / Kurgan Oblast     54°37′20″N   64°59′22″E
temp.,
°C
wind,
m/s
gust,
m/s
humid.,
%
clouds,
%
prec.,
mm/h
press.,
hPa
HPBL,
m
14 august, sun
sun1423:00+18n410570 0.1 1014250
02:00+12n36641 0.0 1016106
05:00+11nnw22725 0.0 101727
08:00+15nnw35585 0.0 1018361
11:00+19nw67430 0.0 10181685
14:00+21nnw67364 0.0 10182034
17:00+21nnw67356 0.0 10182196
20:00+16nw35525 0.0 101971
15 august, mon
mon1523:00+13ne22605 0.0 101921
02:00+12se11645 0.0 102010
05:00+13w2259100 0.0 102128
08:00+15nnw1254100 0.0 1021177
11:00+18n2345100 0.0 1022693
14:00+22wnw46348 0.0 10212262
17:00+22nw553357 0.0 10202408
20:00+18nnw224872 0.0 102027
16 august, tue
tue1623:00+14w225798 0.0 102012
02:00+15nnw2252100 0.0 102031
05:00+13n346424 0.0 102170
08:00+16n23534 0.0 1022204
11:00+21nw57385 0.0 10211622
14:00+22nw793755 0.0 10202412
17:00+20nnw69477 0.0 10201030
20:00+16wnw335960 0.0 102033
17 august, wed
wed1723:00+17nw225697 0.0 102042
02:00+13n486013 0.0 1020124
05:00+10nne3473100 0.0 102265
08:00+14n2353100 0.0 1022247
11:00+18nw3543100 0.0 10221183
14:00+19nw693895 0.0 10212058
17:00+17nw6843100 0.0 10211303
20:00+15nnw4850100 0.0 1020437
18 august, thu
thu1823:00+14nw2653100 0.0 1019193
02:00+10nnw3367100 0.0 101942
05:00+9nnw237799 0.0 101942
08:00+13n3564100 0.0 1019336
11:00+16n4543100 0.0 10191573
14:00+17nnw5640100 0.0 10182101
17:00+18n663264 0.0 10182343
20:00+12ene812546 0.0 1020584